RH
45 51 56 55 51 47 45 47 50 51 53 53 47 42 34 32 34 33 31 30 29 30 30 29 28 26 25 22 18 19 17 29 38 30 22 17 18 22 24 20 12 16 18 17 18 17 16 14 14 15 11 9 8 8 10 9 8 9 9 11 11 10 10 9 8 6 6 6 6 5 5 6 6 7 12 23 33 40 45 48 51 51 53 54 59 65 68 71
43 45 47 48 47 46 46 47 49 50 49 45 41 38 31 29 31 29 28 26 26 26 27 27 25 24 22 19 18 18 20 32 33 20 17 16 14 16 18 15 12 16 15 15 16 14 13 12 13 13 9 8 8 9 10 9 9 9 9 10 10 9 8 7 7 6 6 6 5 5 5 5 5 7 7 18 31 39 47 55 61 68 75 77 77 78 79 84
43 43 42 43 45 45 46 47 48 48 46 40 37 35 29 28 29 27 25 23 24 24 25 25 23 23 20 18 17 20 29 32 21 14 18 15 9 12 14 11 12 15 14 15 15 14 14 13 12 11 9 7 7 9 9 9 9 8 9 10 8 8 7 6 6 6 6 5 6 5 5 6 9 11 10 16 27 39 47 54 66 76 82 86 85 86 85 84
40 40 39 39 42 43 45 46 47 46 44 39 35 32 28 26 27 26 23 22 23 24 26 24 24 23 19 19 18 28 39 27 13 15 18 13 9 10 10 10 12 14 15 16 17 17 16 14 12 10 8 7 7 8 9 9 9 8 9 9 7 8 7 7 7 6 6 6 6 5 5 6 12 19 21 18 24 43 53 54 66 75 75 77 78 81 83 84
37 37 36 36 39 41 44 46 48 46 43 40 35 31 26 24 25 24 21 21 22 24 25 23 25 23 21 22 22 36 40 20 11 15 14 11 9 9 10 11 12 14 17 18 17 17 16 14 11 9 8 7 8 8 8 8 8 9 8 7 8 7 6 6 6 6 7 6 6 5 5 6 14 26 33 32 34 49 60 61 68 75 74 78 81 80 82 89
36 35 34 34 36 40 44 47 49 48 46 44 36 28 24 23 23 23 20 20 22 23 23 22 23 23 25 24 26 37 31 14 13 14 12 10 10 10 11 12 14 17 18 17 17 16 15 13 11 9 8 7 7 7 8 8 8 8 7 7 8 7 6 6 6 7 7 6 6 5 6 8 18 32 38 45 49 49 54 57 64 75 78 83 88 80 76 83
34 35 33 32 35 39 44 48 50 48 47 47 40 26 21 22 22 22 20 19 22 22 22 21 20 21 25 24 28 31 19 11 16 14 12 12 12 13 14 15 17 19 17 15 14 13 11 11 11 9 8 8 7 7 8 8 7 8 7 7 7 7 7 6 7 7 6 6 7 7 11 13 22 34 40 48 51 46 49 51 56 69 77 80 81 73 68 73
32 33 33 32 34 40 45 49 49 46 43 45 45 29 18 19 22 22 19 19 22 21 21 21 22 23 25 29 27 19 12 13 17 14 13 14 15 16 16 17 18 19 16 12 11 10 9 9 9 8 8 8 7 8 8 8 7 8 7 7 7 7 7 6 7 6 7 8 9 11 17 24 28 35 43 49 51 50 51 53 54 57 64 66 65 66 67 68
30 32 34 33 35 41 46 50 47 43 39 40 46 36 19 15 20 22 18 19 22 21 23 25 27 25 27 31 21 12 14 16 16 16 14 14 15 16 17 18 19 17 13 11 11 9 8 8 8 7 8 8 8 8 8 8 8 7 7 7 7 7 7 6 6 6 8 9 12 17 22 27 26 29 42 47 49 53 53 54 55 54 58 61 62 66 67 66
27 31 34 34 36 42 47 49 44 40 37 36 44 38 19 13 18 19 18 19 21 21 24 27 27 27 32 30 16 12 17 17 18 18 16 16 16 16 18 18 17 16 11 10 10 9 8 8 7 7 7 7 7 8 8 8 7 7 7 7 7 7 7 6 7 6 8 10 14 22 28 29 25 29 43 46 46 51 54 57 60 65 68 69 71 73 72 73
24 30 35 37 38 44 49 47 40 38 35 33 39 33 16 14 18 17 17 20 20 20 23 25 25 29 35 25 13 15 18 19 21 20 17 17 18 17 16 17 17 15 11 10 9 9 9 8 7 7 7 7 7 7 7 7 7 7 6 7 7 7 7 6 7 7 9 13 15 22 28 30 30 36 45 44 43 47 51 56 58 62 66 68 70 72 76 78
22 29 34 38 40 46 48 41 37 37 34 32 33 24 13 13 15 16 18 19 20 21 22 25 24 29 34 21 13 17 19 21 20 19 18 17 18 16 15 17 16 15 13 10 9 10 10 9 8 7 7 7 7 7 7 6 6 7 6 7 7 7 8 8 7 7 10 13 15 17 21 31 38 42 44 41 42 43 47 53 53 52 56 62 62 61 66 70
19 28 34 38 43 47 45 38 35 35 32 32 28 17 11 13 14 16 19 19 19 21 24 25 23 31 34 19 14 19 19 20 18 17 18 17 17 15 15 15 15 16 15 12 11 11 11 10 9 8 8 7 7 8 7 6 7 7 6 7 8 7 9 10 9 8 9 13 15 12 19 36 43 43 42 39 40 43 48 53 53 52 52 56 55 53 56 57
16 26 34 38 45 47 42 36 34 32 31 33 27 14 10 12 13 17 18 18 19 22 25 23 23 33 32 17 15 19 18 18 16 15 17 17 16 13 14 14 13 16 15 14 13 11 11 10 9 8 9 9 8 8 7 7 7 7 7 7 8 9 10 11 12 11 10 13 13 10 22 40 43 43 41 38 39 43 49 50 50 51 50 49 49 48 48 48
13 24 34 39 45 45 39 34 31 31 34 35 26 13 12 14 14 17 16 18 21 22 25 25 27 30 22 13 16 18 16 17 15 16 16 16 14 11 12 12 13 15 15 15 12 11 10 9 8 8 9 10 9 9 8 7 7 7 9 9 8 9 10 11 13 14 13 12 11 11 26 40 42 41 39 37 37 40 45 47 47 48 46 45 43 42 42 42
11 20 32 38 44 44 37 33 30 31 38 36 23 12 13 14 15 19 20 23 25 23 26 29 28 26 18 13 16 16 15 16 15 16 16 15 14 12 12 12 12 13 13 13 12 11 10 9 10 9 9 9 9 10 9 10 10 8 10 11 10 9 10 11 13 16 14 12 10 12 24 37 40 39 39 39 37 36 41 44 44 43 42 41 40 39 39 38
11 16 29 37 43 45 38 34 31 32 39 34 21 14 14 18 24 28 30 30 27 25 28 28 25 22 17 14 15 14 14 16 16 16 15 14 15 13 12 11 11 12 11 11 11 10 9 9 11 10 9 9 9 11 16 20 18 14 14 13 12 11 11 11 13 15 14 11 11 13 24 35 38 37 38 39 35 34 38 40 39 38 37 36 36 36 36 37
12 12 24 35 42 45 41 37 32 32 38 31 18 14 16 22 29 32 34 33 29 30 30 26 25 23 17 14 15 15 15 16 16 15 14 14 14 13 13 11 11 11 10 11 10 9 9 9 10 10 10 10 10 12 18 22 19 18 18 16 14 12 10 12 15 17 14 13 14 19 30 37 37 36 36 35 33 35 37 38 38 37 35 35 33 33 34 36
13 10 17 30 39 43 42 40 35 32 36 32 24 22 23 25 29 31 33 29 27 31 29 23 23 23 18 15 15 15 15 16 15 13 13 14 15 14 12 12 12 11 10 11 10 10 9 9 10 11 11 11 10 10 12 13 12 13 13 12 12 12 15 19 22 21 15 14 17 21 30 36 36 36 36 35 34 36 39 38 39 38 36 35 34 34 35 36
14 10 12 24 34 41 41 39 37 34 35 36 36 35 32 30 28 27 25 22 23 27 24 21 21 19 17 16 15 15 15 14 13 12 12 13 14 13 11 11 11 11 11 11 12 11 10 12 13 13 13 12 11 10 10 9 9 10 10 10 10 13 22 24 24 23 18 19 23 23 29 34 35 36 35 34 34 36 38 39 39 37 35 35 34 35 37 38
14 12 10 18 30 38 39 38 38 36 37 40 41 38 37 39 35 31 27 21 22 26 22 21 22 20 18 18 17 16 14 12 11 11 12 14 12 11 11 11 11 12 12 12 12 11 13 15 16 16 15 14 14 12 10 9 9 10 9 11 12 15 22 23 22 22 19 23 29 28 30 34 34 35 34 32 34 35 35 36 37 35 34 34 35 36 38 39
14 12 9 14 26 36 38 38 37 36 40 44 42 38 41 48 50 48 41 25 19 23 20 19 22 19 16 18 19 17 14 13 12 11 12 12 11 11 12 10 11 12 12 12 13 14 16 17 17 17 14 14 16 13 11 11 9 10 10 11 14 17 21 24 24 22 19 23 30 29 30 35 34 33 33 32 33 35 34 34 34 33 33 32 32 35 37 38
13 12 10 13 25 34 37 38 36 37 44 45 41 40 45 53 54 53 47 29 20 21 17 17 19 15 15 16 17 16 14 14 14 12 12 12 11 12 12 10 11 12 12 12 13 16 18 17 17 17 15 15 16 14 13 12 11 11 11 12 17 18 18 21 25 24 21 22 26 27 30 34 34 33 34 32 31 33 31 31 30 30 32 32 31 33 34 36
12 12 10 13 26 35 35 37 37 40 48 46 43 46 51 54 51 49 44 29 23 21 18 19 18 15 17 17 17 16 13 14 15 13 13 12 11 12 13 13 12 11 13 12 12 15 17 17 16 17 16 15 15 15 13 13 14 13 12 12 16 18 14 16 24 24 22 23 23 23 26 30 33 33 34 33 32 33 32 30 29 28 30 33 33 34 35 36
12 13 9 14 30 35 33 37 38 42 46 44 46 50 52 50 46 49 42 29 26 22 19 21 19 17 18 18 17 14 12 13 13 14 15 14 13 13 13 14 14 13 14 14 13 16 17 17 16 16 16 14 14 15 14 14 15 16 17 14 13 16 15 18 23 21 22 27 24 20 22 27 30 31 32 33 33 35 35 32 30 29 29 31 32 34 36 36
12 12 9 16 31 35 34 35 36 41 42 43 48 49 49 44 42 49 43 29 27 25 22 23 21 21 19 18 16 12 14 15 12 15 18 17 16 14 14 15 15 15 16 14 15 17 17 17 16 15 14 13 14 15 15 14 15 18 19 16 14 16 17 20 21 18 21 27 24 22 22 26 32 31 31 34 33 34 35 33 31 29 29 29 30 31 34 35
12 11 8 16 31 35 35 34 35 39 39 42 48 48 47 43 43 50 43 34 33 29 26 23 22 23 20 18 15 14 19 17 12 14 15 17 17 15 16 16 15 17 16 16 19 20 18 16 16 16 14 14 14 15 17 14 14 19 19 17 17 18 19 20 17 17 22 25 26 25 24 25 30 29 29 33 34 34 34 33 32 30 29 30 30 30 33 34
11 9 8 15 30 37 36 37 39 40 40 43 46 47 45 46 50 48 41 42 39 30 28 25 21 22 19 16 14 14 16 14 15 16 13 16 17 14 15 16 16 17 16 18 22 22 20 19 18 17 16 16 16 17 18 15 15 19 19 17 18 18 18 18 16 19 22 25 29 28 26 25 25 25 29 33 35 36 35 33 33 30 28 30 31 31 32 33
10 9 8 13 30 38 34 37 40 40 43 45 46 47 47 50 49 37 35 45 40 28 29 27 22 21 19 16 14 13 13 13 17 17 13 16 17 15 17 19 18 17 15 16 20 21 21 22 21 18 17 18 19 20 18 17 17 19 20 19 19 19 18 18 18 21 25 27 29 29 26 26 26 28 34 37 35 33 32 31 30 29 27 28 30 31 32 32
9 9 7 13 34 41 35 38 42 41 44 44 45 49 51 51 43 33 39 48 41 33 29 24 24 24 21 18 16 14 14 14 16 16 15 16 15 16 19 20 18 16 16 15 18 22 21 23 23 21 21 19 19 21 20 18 18 20 21 20 22 21 20 22 22 23 30 32 28 26 26 27 30 29 30 35 33 27 27 29 30 29 27 28 31 30 29 29
9 8 7 16 35 42 39 40 41 42 44 43 48 52 49 43 34 37 48 47 39 35 29 24 26 25 23 23 20 16 15 15 15 16 18 16 15 16 18 19 17 16 19 19 21 22 20 22 23 22 23 20 18 21 21 20 18 19 20 20 25 27 26 28 28 29 35 36 30 26 24 28 34 28 22 26 28 24 24 27 30 30 28 29 31 27 25 27
8 7 9 21 33 38 40 40 40 43 43 44 52 50 42 38 35 39 45 43 42 42 35 33 31 27 26 24 20 17 16 18 17 18 19 18 18 20 22 22 20 21 23 22 24 23 21 21 22 23 23 21 19 20 22 21 19 20 20 22 29 33 36 37 35 35 35 34 33 28 26 32 32 24 19 22 24 24 24 25 28 30 28 28 28 26 26 29
8 7 15 28 35 38 41 41 42 43 42 48 50 40 35 40 42 42 39 40 47 46 40 38 34 30 27 22 20 18 18 19 19 19 21 20 20 22 25 23 22 24 25 24 25 24 24 24 21 22 23 21 20 20 22 23 21 21 21 24 29 33 41 45 38 35 33 32 32 29 31 34 27 22 22 22 23 24 24 24 26 27 27 27 26 25 28 32
7 13 24 34 38 39 37 38 42 42 43 49 45 37 40 43 43 46 42 40 44 43 40 39 35 30 26 23 23 20 19 21 19 19 20 19 20 22 23 23 22 22 24 26 27 25 28 29 25 24 25 23 21 19 20 20 19 20 19 21 26 29 35 38 33 30 31 33 34 34 35 31 28 31 29 25 24 23 24 25 26 27 26 26 26 26 30 34
11 23 34 40 42 38 34 37 41 42 44 44 38 37 43 42 39 42 40 37 39 39 39 38 34 30 25 25 25 20 21 23 20 19 20 20 22 23 23 23 22 22 23 27 30 27 29 30 27 26 25 23 23 20 19 18 19 19 17 19 25 25 25 31 36 37 34 34 34 35 34 25 25 32 28 25 25 23 25 27 29 29 26 27 30 30 32 35
21 37 42 45 46 39 36 39 41 45 44 38 34 34 37 38 37 37 39 39 40 40 39 36 32 30 27 26 26 23 21 22 20 20 21 21 24 26 25 24 23 24 24 27 31 29 29 30 27 26 25 24 24 23 20 21 22 20 19 22 24 21 22 29 40 44 40 35 31 32 31 23 23 29 27 26 27 25 27 29 29 28 27 30 33 33 34 34
28 46 47 47 47 40 38 41 44 47 40 32 34 36 35 37 36 35 39 42 43 42 39 37 35 34 31 27 27 24 20 20 20 21 23 24 26 27 25 25 25 25 25 26 30 30 31 32 28 25 27 26 24 23 21 20 21 22 22 22 21 22 24 27 34 38 37 34 31 29 29 24 24 33 34 29 28 29 28 28 28 27 28 31 32 33 33 33
35 51 50 47 44 40 39 43 47 44 34 31 38 40 37 36 35 37 39 41 43 42 38 38 39 38 35 30 27 25 22 21 21 21 23 25 28 27 25 25 27 27 26 26 27 30 32 35 31 26 27 26 22 23 25 22 20 22 23 20 22 28 30 29 33 35 33 32 28 26 28 25 22 29 34 30 29 30 29 29 28 27 29 30 30 31 32 33
47 49 45 46 44 39 39 44 46 40 32 32 37 39 38 35 34 36 38 40 40 40 38 39 40 40 38 33 29 26 23 23 22 21 22 24 29 29 24 24 26 26 26 25 26 29 30 33 32 27 26 27 24 25 29 27 22 21 21 20 21 27 29 30 31 30 28 29 28 27 29 26 20 21 24 25 27 28 29 30 28 27 29 28 27 29 30 33
56 42 40 49 45 40 41 45 44 36 33 37 38 37 36 35 36 36 40 45 41 39 41 41 41 41 39 35 32 29 26 25 25 23 22 23 26 28 26 24 24 25 27 28 27 28 29 31 30 27 27 28 27 27 28 29 27 24 24 25 26 26 27 29 29 26 26 29 30 32 30 23 20 20 19 22 25 25 27 30 29 28 28 26 27 29 30 33
53 37 42 47 40 41 45 43 41 35 34 39 40 39 38 38 40 39 43 49 45 39 39 40 40 39 38 36 32 30 29 27 26 24 23 22 24 27 28 27 26 26 29 29 28 29 29 28 27 27 28 29 30 31 29 32 35 31 27 27 27 27 29 32 32 28 27 29 29 32 32 24 20 21 21 23 25 24 25 27 29 29 27 26 27 30 33 35
41 29 42 41 34 43 45 39 40 38 35 38 39 41 44 43 41 39 41 43 41 37 37 40 40 38 38 37 32 31 31 30 27 26 24 23 23 26 29 33 34 31 29 28 31 38 36 28 27 27 25 26 31 32 30 35 40 36 30 29 27 27 28 32 34 29 28 31 29 31 34 29 24 25 28 30 30 29 27 27 28 28 26 26 28 30 34 36
35 33 42 38 35 45 45 37 38 38 38 42 42 42 45 44 41 38 37 37 37 37 38 40 40 40 39 37 34 33 33 33 31 27 26 26 25 29 36 45 44 34 29 27 31 43 43 32 29 27 22 24 29 31 31 37 42 37 31 29 30 29 29 31 32 30 31 32 30 33 35 30 26 28 30 32 33 34 34 31 29 28 26 27 29 30 33 37
44 45 44 38 38 43 40 34 34 35 41 48 48 47 47 44 42 40 37 36 37 36 38 40 40 40 38 34 34 34 35 37 34 28 28 28 28 33 43 52 46 32 31 34 34 38 39 33 31 29 27 29 31 34 36 39 40 35 31 32 34 33 34 36 34 33 36 33 30 35 33 26 27 30 28 27 28 30 31 31 31 29 29 30 28 28 31 37
51 48 43 38 37 39 38 38 35 34 43 50 50 49 48 46 49 47 40 35 35 35 38 40 37 36 35 33 35 36 36 38 36 32 30 27 28 31 38 47 43 34 41 50 44 35 33 33 32 30 32 33 33 38 42 40 35 31 33 39 38 35 37 39 35 35 37 35 35 39 34 26 27 30 27 26 26 26 27 30 31 29 29 29 28 28 32 37
49 42 39 35 35 36 39 43 41 38 41 47 48 49 50 49 49 47 42 39 37 38 41 39 34 34 36 37 39 39 37 37 36 34 31 28 27 29 35 43 44 44 54 58 48 37 34 35 34 33 32 31 34 43 45 42 38 35 37 40 39 37 39 39 38 36 34 34 37 37 33 31 30 27 27 28 28 28 27 28 29 28 28 29 28 29 33 35
50 43 40 40 40 37 36 39 39 40 41 41 44 48 50 49 47 46 47 44 40 39 43 40 35 37 40 41 42 41 39 38 37 36 35 31 25 29 39 46 49 55 57 51 45 40 36 35 38 41 37 32 35 43 44 43 43 41 40 39 37 39 42 44 42 38 36 39 39 33 34 39 35 26 27 29 30 30 28 27 27 26 27 27 28 31 33 33
52 49 47 51 49 39 39 42 41 43 46 43 45 49 50 48 48 50 49 45 38 37 41 43 40 38 38 39 41 42 41 41 40 39 38 33 27 29 36 40 47 58 55 43 42 42 36 35 40 43 40 35 35 37 38 41 41 40 40 39 38 39 42 46 44 40 40 42 39 35 39 43 37 29 27 28 29 31 29 28 27 25 25 25 27 30 31 31
56 52 50 54 51 42 46 54 50 46 47 46 46 49 50 48 47 46 44 45 45 40 37 43 44 39 36 36 38 42 43 42 42 41 39 38 36 34 34 35 41 48 46 41 44 44 37 36 43 45 43 40 37 35 36 39 39 39 39 36 35 35 36 39 41 39 39 40 39 39 41 41 36 31 28 26 29 32 30 29 28 26 26 26 27 29 27 27
64 62 62 57 47 44 51 55 50 45 45 47 47 47 50 47 44 44 41 43 50 46 40 44 44 39 37 37 38 41 41 39 41 42 40 41 42 37 35 35 36 39 40 41 47 48 42 41 47 50 46 41 38 36 38 39 40 41 39 34 33 34 35 37 39 39 40 42 41 41 43 41 32 27 27 29 33 36 34 33 31 28 27 27 27 27 26 26
77 80 83 68 49 47 50 48 46 43 41 44 45 46 50 47 42 44 42 38 41 43 42 43 43 41 43 43 41 40 37 35 37 37 35 37 37 35 34 34 33 37 42 43 46 47 44 42 45 45 42 38 37 39 39 38 39 40 39 37 35 35 36 37 38 39 41 43 43 43 43 37 27 25 29 32 36 36 33 31 30 28 27 27 28 27 26 28
75 79 83 72 54 48 46 44 44 42 40 43 46 47 49 46 42 45 46 41 36 37 39 43 45 43 46 49 46 39 35 35 34 32 31 31 30 29 34 36 34 35 39 41 43 43 40 38 38 38 38 36 38 41 41 39 39 36 33 34 33 33 35 35 34 36 39 41 42 41 37 30 27 29 31 32 34 34 31 29 29 29 29 28 28 26 25 27
Wind_Speed
19 18 17 16 16 16 15 15 14 14 13 12 11 9 7 6 7 7 7 6 6 5 4 4 4 5 6 5 6 7 7 3 1 1 2 4 2 1 2 5 5 6 5 5 6 7 8 7 8 8 8 7 6 5 8 8 6 6 6 8 7 7 6 5 7 4 3 8 8 6 2 1 5 4 2 5 6 5 7 9 8 9 10 11 15 17 15 15
21 20 19 17 17 17 16 15 14 13 12 12 11 9 7 6 6 6 7 7 6 6 5 5 5 6 6 6 7 8 8 0 4 4 6 3 2 2 4 6 6 6 4 4 6 6 6 6 8 9 7 6 5 6 8 7 7 7 6 7 7 6 5 5 6 5 4 7 8 7 2 2 5 5 1 5 7 4 6 9 9 12 13 11 11 11 11 11
22 22 20 18 18 17 17 16 14 13 12 12 10 8 6 5 6 6 7 7 7 6 6 6 6 7 6 7 7 8 6 4 3 7 6 2 3 4 5 6 5 5 2 1 3 4 3 4 7 8 5 5 4 7 8 7 8 7 5 7 6 4 4 5 6 7 4 3 6 6 4 5 8 7 5 4 11 6 5 6 7 11 11 6 2 4 9 8
23 22 21 19 18 17 17 16 15 14 12 12 10 7 6 5 5 5 6 7 7 7 7 7 7 7 7 7 7 7 5 6 3 7 4 3 4 5 5 5 4 3 1 1 1 3 3 4 7 6 5 5 5 6 8 8 7 5 5 6 3 5 6 6 7 7 4 2 2 3 5 6 9 10 10 4 9 6 5 5 7 9 9 7 6 5 8 8
22 23 22 19 18 17 17 16 15 13 12 12 10 7 5 4 3 5 6 6 7 7 7 7 8 8 7 7 6 5 6 4 5 5 3 4 4 5 5 4 3 1 0 1 2 3 5 6 7 6 5 4 6 7 7 8 6 4 5 4 2 6 6 9 9 5 4 2 2 2 3 5 7 11 15 12 8 6 5 6 9 9 6 4 2 4 9 12
22 22 21 19 17 16 17 16 15 13 12 11 10 7 4 3 3 4 5 5 6 7 7 7 7 7 7 7 6 4 4 1 4 3 4 5 5 5 4 3 2 2 1 1 2 5 6 7 7 6 4 4 7 7 5 9 7 4 5 2 3 7 6 10 8 5 3 2 4 3 5 6 8 11 13 16 12 7 6 6 9 11 10 6 2 3 9 11
22 22 21 19 17 16 16 16 15 14 12 11 10 7 3 1 2 3 4 5 6 6 6 6 6 8 7 5 3 2 3 7 4 2 4 4 4 3 2 2 3 2 1 1 2 4 5 7 7 4 4 4 7 6 5 9 8 5 5 5 5 8 4 5 5 6 5 6 6 6 8 7 10 12 11 14 11 7 7 7 9 13 14 12 7 7 11 12
22 23 22 19 17 16 16 16 15 15 14 11 8 6 3 0 2 2 3 4 5 5 6 7 7 7 7 4 4 2 8 8 4 2 3 3 2 2 2 2 3 2 2 2 2 1 2 4 3 4 5 3 5 6 6 9 8 5 5 8 5 6 2 5 5 7 9 8 7 9 11 11 12 12 13 14 10 7 7 7 8 11 12 12 11 12 13 12
22 23 22 19 16 15 15 15 15 16 16 13 8 5 3 0 2 1 3 3 4 5 6 7 8 7 5 4 5 4 8 4 2 2 1 1 1 3 3 1 2 2 1 3 3 1 0 0 1 2 2 3 4 5 7 8 6 6 5 6 5 4 3 4 6 8 9 6 8 12 12 10 8 7 12 13 8 8 9 9 9 9 11 11 12 13 13 13
23 23 22 19 16 15 14 14 15 16 17 15 9 4 2 1 2 1 2 2 3 5 6 8 9 7 4 6 5 4 5 2 1 1 1 1 2 4 3 2 3 3 1 2 2 4 4 3 3 2 3 2 3 3 7 5 1 5 5 4 4 5 5 4 7 9 8 6 8 13 13 11 7 4 8 10 8 9 10 12 11 9 11 12 13 14 15 15
23 23 22 19 16 14 14 13 14 16 17 16 9 3 0 2 3 2 1 1 3 5 6 8 10 7 5 7 1 6 4 2 1 1 2 2 4 4 3 3 3 4 2 1 3 5 4 4 2 2 1 2 4 4 3 3 2 5 6 5 5 7 8 5 7 8 7 6 8 13 14 12 11 8 8 8 6 8 10 13 12 9 10 13 14 13 14 15
24 23 21 19 16 14 13 13 14 15 17 15 8 2 1 3 3 2 1 1 3 5 7 9 10 7 5 4 5 7 3 2 1 1 1 3 5 4 3 2 4 4 4 2 4 5 4 4 3 3 1 1 3 4 3 3 1 7 7 7 8 9 8 7 6 4 5 6 4 6 9 10 11 9 8 7 5 8 11 13 13 11 11 12 12 12 12 14
25 24 21 18 16 13 13 13 14 16 17 14 7 2 3 4 3 3 1 1 3 6 7 8 10 6 5 2 7 4 3 3 3 2 1 3 5 3 2 2 2 4 3 3 3 4 3 3 5 3 3 1 2 3 3 3 4 6 5 5 8 9 6 7 4 2 5 5 1 5 3 7 9 8 7 6 4 9 12 12 12 12 12 12 12 12 12 15
25 24 21 18 15 13 13 14 15 17 17 11 5 3 3 4 3 2 0 2 4 6 7 8 9 5 3 5 5 3 5 4 5 4 2 2 4 2 2 2 2 2 3 3 2 2 1 1 2 1 3 3 3 3 4 5 4 6 4 4 6 7 5 6 4 1 3 4 2 6 1 5 7 7 6 5 4 9 12 12 12 12 12 11 12 12 13 14
25 24 22 18 15 12 13 16 17 19 15 8 4 3 4 3 2 1 1 4 5 6 7 7 7 4 2 7 4 3 5 2 3 5 4 3 4 1 2 2 1 1 2 2 1 1 0 2 4 3 4 2 2 2 4 5 3 4 5 6 6 5 5 6 4 3 0 4 4 6 2 6 7 7 6 5 5 9 11 12 12 12 13 12 11 12 12 13
25 24 21 18 14 11 13 16 18 19 13 6 4 4 3 3 2 1 2 4 4 4 5 4 4 6 1 6 2 1 3 2 3 6 6 4 4 3 3 2 2 3 2 2 2 1 1 3 2 1 3 5 4 3 3 3 2 1 3 5 5 4 4 5 4 3 2 4 5 4 3 7 7 8 7 5 6 10 11 12 12 12 12 11 10 10 10 11
25 24 21 18 14 10 12 16 18 19 12 6 4 4 3 3 2 3 4 4 3 2 3 3 4 5 2 4 1 1 5 5 6 5 4 5 4 3 4 3 3 4 4 4 4 4 3 3 2 2 4 5 5 4 3 2 3 1 2 3 4 6 6 6 5 3 1 4 6 4 6 9 9 9 8 5 6 10 11 11 11 11 11 10 10 10 10 10
25 24 21 17 14 10 11 14 18 18 11 5 4 3 2 1 2 4 4 3 2 2 2 2 3 3 4 4 2 4 6 6 5 5 3 4 4 1 3 3 3 4 6 6 5 5 4 4 5 5 6 6 7 7 6 6 8 8 7 6 7 8 8 6 5 3 3 5 6 7 9 11 11 10 9 7 7 9 11 10 10 10 10 10 10 10 10 11
25 24 21 17 14 10 10 12 16 17 11 4 4 3 0 1 1 1 2 2 1 1 0 2 3 1 4 6 6 5 5 4 3 3 2 4 3 2 2 2 4 5 6 5 4 4 5 5 6 5 6 5 6 6 6 7 10 13 13 10 9 8 4 5 7 4 3 6 6 8 10 12 12 10 9 8 8 9 10 9 9 9 9 8 8 9 9 10
24 24 21 18 14 10 9 11 13 16 11 4 3 3 3 2 3 3 3 4 4 5 4 5 5 3 3 5 8 6 2 0 1 3 5 5 3 4 1 1 6 5 2 3 5 4 4 4 4 2 3 4 3 2 2 4 7 10 12 9 10 9 6 7 8 5 3 4 5 8 11 12 11 10 10 9 9 9 9 9 8 7 7 7 8 9 9 9
24 23 22 18 15 10 7 9 12 13 10 6 4 2 0 2 0 2 3 4 6 5 4 5 3 2 3 4 9 8 2 2 3 6 7 5 4 5 1 3 6 4 3 3 5 4 3 2 6 6 5 6 5 3 4 6 8 9 9 8 9 8 7 7 6 4 3 3 6 10 12 11 10 10 9 8 8 8 7 8 8 8 7 7 7 9 9 8
23 23 22 19 15 10 6 7 10 11 11 9 6 5 5 5 3 2 2 2 7 3 3 3 1 2 3 1 6 8 5 0 4 7 9 7 4 2 1 4 3 5 6 5 5 4 3 5 8 7 4 5 5 4 6 7 8 7 7 7 7 7 8 7 5 4 3 4 8 11 10 9 9 9 8 7 7 6 5 6 6 6 6 6 7 8 8 8
23 23 23 19 15 10 4 5 8 10 12 11 9 8 5 4 3 0 4 1 5 3 3 4 2 4 4 2 6 8 3 2 4 7 11 9 3 4 2 2 3 5 6 5 3 2 4 6 7 5 5 6 6 5 6 7 5 5 5 6 7 8 8 6 4 3 2 3 8 11 8 7 8 8 7 5 6 6 5 5 4 4 5 6 6 6 6 7
23 23 23 19 14 8 2 4 7 8 10 10 10 9 4 2 1 2 3 2 2 3 3 4 3 5 6 3 5 7 2 4 5 6 11 9 3 2 3 2 2 5 3 0 1 4 6 5 4 4 6 5 7 6 5 5 3 3 3 4 8 9 6 6 7 6 5 5 9 10 6 5 7 8 8 5 5 6 5 5 5 4 5 6 6 7 7 7
23 22 23 19 13 7 2 3 6 5 5 7 8 8 5 1 1 3 3 2 2 3 2 1 1 3 5 3 4 5 1 3 5 6 8 8 5 2 0 2 3 3 5 1 2 5 6 4 0 4 6 5 6 5 3 2 3 4 2 2 8 8 6 10 11 8 6 5 8 8 5 5 8 9 8 7 7 7 6 6 6 5 5 5 6 6 6 6
23 22 21 18 12 6 1 2 5 2 1 4 5 8 5 1 1 2 3 3 2 2 1 1 1 3 4 3 4 3 4 3 5 5 5 6 6 3 1 1 1 4 4 1 2 3 4 4 2 3 4 5 5 4 2 2 3 4 3 2 7 7 8 12 12 7 3 3 7 7 6 3 7 9 10 9 9 10 8 8 7 6 6 5 5 6 5 5
21 21 20 16 11 7 2 2 4 2 0 3 5 7 4 1 2 2 3 4 1 2 2 1 2 4 5 5 4 4 2 4 3 3 6 7 4 4 2 1 2 4 2 1 2 2 2 5 4 3 3 4 3 3 2 3 4 4 6 6 7 7 8 10 9 6 1 3 7 7 6 4 5 8 12 11 10 11 11 10 9 8 7 7 6 6 5 4
20 19 19 14 8 7 5 2 3 3 2 3 6 6 1 2 2 2 4 4 1 1 1 2 2 3 4 3 3 2 3 2 1 4 5 6 5 4 2 3 2 4 2 4 2 3 1 1 2 1 3 1 1 3 3 4 2 6 7 7 5 5 7 7 6 3 2 3 6 8 6 6 5 5 10 11 11 11 12 12 11 10 9 9 8 7 6 5
20 18 17 13 5 4 5 3 2 2 2 4 6 4 2 2 3 3 3 3 1 1 0 1 1 2 4 2 1 2 2 1 2 4 2 2 5 4 2 5 3 3 3 5 1 5 1 3 4 3 1 2 4 4 4 5 1 7 7 6 4 3 4 5 5 2 3 5 6 7 9 7 5 3 7 9 11 12 12 11 11 11 10 10 9 7 7 6
19 16 15 12 4 1 2 3 2 2 2 4 5 1 3 4 4 4 2 1 1 2 0 2 2 4 5 3 4 2 2 3 3 2 1 1 4 4 3 1 2 1 3 1 3 5 4 3 1 3 3 3 4 4 3 2 6 10 8 6 5 3 3 2 3 1 3 6 5 6 9 7 6 4 6 8 10 11 10 10 11 11 11 10 9 8 8 6
17 14 13 10 3 0 0 2 2 2 2 4 2 2 5 3 3 4 1 0 1 1 0 1 3 4 4 2 2 3 3 4 2 1 2 2 2 3 2 2 3 2 3 3 4 5 6 4 2 3 3 1 3 5 4 5 10 9 7 6 5 4 3 4 3 3 5 5 3 4 6 8 7 5 5 6 8 9 9 9 11 12 12 11 9 8 7 6
16 13 10 7 1 1 1 1 2 1 2 2 1 4 5 3 3 3 1 2 2 2 2 2 4 5 3 2 0 2 1 3 3 1 1 0 1 3 2 2 1 3 4 4 4 5 5 3 4 4 2 2 3 4 5 5 7 6 5 6 5 4 4 5 4 4 6 3 3 2 4 6 7 7 6 5 7 8 8 8 11 13 12 11 10 8 7 5
14 11 7 4 1 1 1 1 1 1 2 1 4 4 3 3 2 0 1 1 1 3 2 2 4 4 3 3 2 2 1 2 2 1 1 1 1 3 3 4 4 5 2 2 4 5 4 4 5 6 4 1 5 3 3 5 6 6 6 6 6 4 4 6 5 5 5 3 4 3 3 5 7 5 3 3 4 7 8 8 9 11 11 10 10 8 6 5
12 9 5 1 2 2 1 1 1 2 1 3 5 3 3 3 1 1 1 1 2 1 0 2 3 2 3 2 2 1 1 3 2 2 3 3 3 2 3 3 3 5 2 2 3 4 4 3 4 3 2 2 4 3 3 2 5 5 3 4 5 4 4 5 4 4 4 2 4 5 4 5 5 1 3 1 3 5 8 7 7 9 9 9 8 8 7 6
11 7 0 3 3 3 2 1 1 2 2 4 5 3 3 3 1 1 1 2 2 1 1 0 3 4 4 1 2 1 2 2 2 3 2 2 1 1 2 3 3 4 3 3 2 2 5 2 5 3 2 1 2 1 4 4 4 3 2 5 5 4 4 3 2 3 3 3 3 5 4 4 1 3 4 2 4 7 9 9 9 9 9 8 7 7 7 6
10 2 4 4 2 2 2 1 1 2 3 5 4 3 2 2 2 1 1 2 1 2 1 3 3 4 4 3 3 3 0 1 2 3 2 1 0 1 2 3 3 3 4 2 2 2 5 2 6 4 2 1 2 1 1 5 3 3 4 5 1 3 4 3 0 1 1 6 5 3 5 4 2 4 6 6 7 9 10 10 11 11 10 9 8 8 8 7
10 1 3 3 1 1 2 1 2 2 4 5 3 2 1 2 2 2 2 1 1 2 4 4 2 3 3 3 3 4 3 2 3 4 3 3 2 2 3 3 2 3 5 4 1 1 3 2 6 5 4 5 2 1 2 2 4 3 3 2 3 2 3 4 4 2 4 7 4 3 7 6 3 3 5 7 8 10 12 11 11 12 11 10 9 8 8 8
10 1 2 2 0 1 1 2 3 3 4 4 2 1 0 1 2 2 2 1 0 1 4 3 1 1 2 3 2 4 3 3 4 3 3 3 2 2 4 4 3 2 4 5 3 1 3 3 5 5 3 5 3 4 4 4 2 4 2 1 1 3 3 4 4 5 6 7 5 5 6 5 5 2 4 7 9 10 12 12 12 13 12 10 9 9 9 8
6 3 3 2 0 1 3 4 3 4 4 4 2 2 1 2 4 3 2 1 1 2 2 1 0 1 2 3 1 2 3 3 2 3 3 3 2 2 2 1 3 3 2 4 4 1 2 4 3 6 4 3 5 6 6 5 4 2 3 3 3 4 3 2 3 4 6 6 6 6 5 4 4 1 1 4 7 10 11 12 12 13 12 10 9 9 9 8
3 3 2 3 0 1 4 4 4 4 3 2 1 1 2 3 5 3 1 1 1 1 1 1 0 2 2 2 2 0 2 3 3 3 2 2 3 3 2 1 2 4 3 1 2 1 2 3 2 5 5 4 5 4 4 3 3 4 5 5 4 3 2 3 4 4 5 6 6 6 7 4 1 2 2 3 3 7 10 11 11 11 12 11 9 8 7 7
2 3 2 3 2 2 3 4 3 2 2 1 1 2 3 1 4 5 2 2 1 1 2 2 1 2 1 2 2 0 2 3 3 4 3 3 4 3 2 0 1 2 3 3 2 1 1 3 4 3 4 5 2 3 4 5 4 4 4 4 5 4 3 5 6 4 4 6 6 5 8 4 3 2 1 2 2 3 7 10 10 10 11 11 8 8 7 6
4 2 3 4 3 3 5 3 2 1 2 1 2 3 3 1 3 4 4 3 2 0 1 1 1 2 1 2 1 0 2 3 3 4 3 3 3 0 3 2 1 1 3 1 2 2 1 3 5 5 4 3 3 6 4 5 5 6 5 4 4 4 5 6 6 3 3 5 4 5 8 3 4 3 1 1 2 2 4 7 9 10 10 9 8 8 8 7
2 1 3 6 3 4 5 3 3 2 1 2 2 3 3 2 3 3 3 3 2 1 2 2 1 1 1 1 2 1 2 3 3 3 2 2 1 4 4 1 1 3 4 1 3 3 2 2 4 5 4 2 1 2 1 1 3 6 6 5 5 5 5 6 6 5 4 5 4 5 7 2 5 4 1 1 1 1 3 5 8 9 8 7 7 7 8 8
3 2 1 5 3 3 5 3 2 3 3 3 3 4 2 1 1 1 2 2 1 1 2 1 1 1 0 0 3 2 0 2 3 1 2 3 2 6 5 0 3 3 2 2 2 3 3 2 2 5 4 4 5 5 5 4 4 6 6 5 5 5 5 4 5 5 5 8 8 7 7 2 5 4 2 2 3 4 4 5 7 8 7 6 7 7 8 8
3 2 2 1 2 1 3 2 2 2 4 5 4 5 4 2 1 2 1 2 1 1 1 1 1 1 1 1 3 2 1 2 2 1 2 2 3 5 3 1 3 3 2 4 2 2 3 2 2 5 6 5 4 2 2 2 4 6 5 5 5 7 7 5 5 6 7 7 7 7 7 2 4 4 3 3 4 5 5 6 8 8 7 7 7 7 7 8
2 2 2 2 2 1 1 1 2 3 4 5 4 4 4 4 3 1 1 1 2 0 1 1 1 2 3 3 4 4 3 2 3 2 3 3 3 4 3 1 1 1 4 4 0 2 3 3 5 7 7 6 5 4 3 5 4 5 5 6 7 7 7 7 6 7 6 6 7 8 9 8 5 4 4 3 4 5 5 7 8 9 8 7 7 7 8 8
2 1 0 1 2 2 2 2 2 2 2 4 3 3 4 5 5 3 1 1 2 2 2 1 2 3 3 3 4 4 3 3 4 4 4 4 3 4 4 2 3 5 6 4 1 2 4 4 5 7 9 8 7 4 2 3 6 7 7 8 8 7 8 9 9 8 7 6 7 6 5 8 8 6 5 5 5 6 6 7 8 9 9 8 8 8 9 8
1 1 2 2 1 1 1 1 1 1 2 3 2 2 4 5 5 4 2 2 3 4 3 2 4 4 3 3 3 3 3 4 4 4 4 4 5 4 5 5 5 7 7 4 2 2 5 5 2 4 8 8 6 5 4 5 7 8 9 10 10 10 11 12 13 12 10 9 10 8 7 10 9 8 8 7 6 7 7 7 8 8 8 9 9 9 10 9
1 1 1 1 2 1 2 2 0 2 4 3 2 3 4 5 5 4 2 3 4 4 4 3 3 4 4 4 4 3 3 3 3 3 4 4 5 5 5 5 5 7 7 5 3 2 5 3 1 3 8 8 7 6 5 7 9 9 10 12 12 13 14 14 14 14 14 14 14 13 15 15 11 10 11 9 6 6 6 6 7 8 9 9 10 10 10 9
2 2 2 2 2 1 1 0 2 4 4 3 3 3 4 5 5 3 3 5 5 4 5 5 2 3 3 4 5 5 3 3 4 3 3 4 4 4 6 5 4 6 7 6 4 3 3 2 1 2 7 7 6 5 5 7 8 10 12 12 13 14 14 14 14 13 14 14 15 15 15 14 11 9 9 6 3 4 6 7 8 9 10 10 10 11 10 9
3 3 3 4 2 2 2 2 3 4 4 4 4 3 4 6 5 4 4 6 5 4 5 4 2 3 3 5 7 7 5 4 6 5 3 5 5 3 3 4 4 6 7 6 5 4 4 3 1 3 7 6 3 3 5 7 9 12 14 15 15 15 14 13 12 12 13 14 14 14 12 11 8 5 5 4 5 6 8 9 9 9 10 11 11 11 10 9
3 3 3 5 2 1 2 2 3 4 3 2 2 3 4 3 2 3 4 4 5 5 3 3 3 3 4 5 5 5 4 4 6 5 4 5 5 4 3 2 4 6 6 6 6 5 5 5 4 5 7 5 2 2 5 7 9 10 8 7 8 9 10 11 11 12 13 13 12 10 9 8 5 3 5 6 6 7 8 8 8 9 10 11 11 11 10 9
Wind_Direction
15 11 8 8 8 8 8 5 1 359 358 357 359 2 6 14 21 27 39 47 49 47 36 35 30 29 25 17 23 10 10 25 207 208 58 48 47 174 128 129 142 135 129 141 165 166 161 166 158 173 184 176 200 187 174 195 196 197 215 221 225 220 207 188 186 192 140 142 140 128 154 243 109 100 137 102 60 60 79 71 73 82 82 93 110 122 131 126
17 14 11 9 10 10 10 8 6 5 3 3 5 8 14 21 28 34 43 49 47 46 40 33 27 22 9 5 7 357 6 22 192 79 51 30 75 124 130 142 155 137 124 151 174 184 176 158 158 181 191 174 183 171 170 184 193 206 215 219 226 213 185 182 191 177 142 143 137 122 108 29 54 39 285 138 92 56 75 80 92 95 80 67 75 94 97 92
18 15 12 11 11 11 10 8 8 9 7 7 10 13 20 28 34 39 45 48 46 46 40 30 23 9 360 360 355 356 351 226 173 54 38 12 75 113 144 149 156 145 124 167 179 209 207 144 166 192 195 180 184 179 182 179 189 212 221 224 217 185 176 182 190 172 139 128 139 133 120 62 43 24 337 124 104 53 41 88 104 101 98 98 79 106 117 127
18 15 13 11 10 10 9 7 7 9 10 10 12 15 23 35 39 43 47 48 45 42 35 27 18 5 2 353 347 355 302 231 79 35 21 45 91 128 143 147 156 148 68 319 191 216 210 171 181 203 204 183 173 184 186 173 183 199 214 242 186 170 194 178 180 165 116 47 124 138 135 92 50 36 14 52 120 81 30 70 98 106 116 141 175 155 121 104
18 16 13 11 9 9 8 7 6 6 9 10 12 13 18 39 45 47 50 47 43 38 32 26 17 8 1 345 342 339 270 237 55 28 41 79 112 125 131 144 141 102 349 248 198 192 192 186 185 200 211 179 163 185 181 171 195 190 201 280 143 178 196 168 170 143 94 38 129 137 113 97 66 47 33 39 79 78 54 76 96 103 98 90 120 109 90 79
15 15 13 11 10 9 8 7 7 6 6 6 10 9 7 43 58 53 49 47 42 36 31 25 17 7 358 351 339 300 261 77 57 45 79 97 111 114 125 114 63 41 264 236 195 195 190 191 193 196 203 179 173 185 162 162 208 220 185 255 186 189 185 161 153 96 98 101 110 105 80 99 90 63 48 53 59 68 79 91 100 111 119 123 176 97 81 81
13 13 12 10 9 9 8 8 11 11 6 2 7 5 354 45 84 65 49 46 41 34 28 18 8 359 356 351 312 274 92 80 76 86 93 104 108 104 90 50 22 4 282 250 192 203 195 198 203 200 193 186 182 177 143 160 209 249 172 168 183 189 170 124 107 87 104 98 92 95 85 90 87 72 56 57 58 68 83 88 95 109 124 136 144 99 77 76
11 11 11 10 9 8 7 8 11 11 8 2 1 359 341 14 111 75 52 48 39 30 18 9 359 352 354 316 260 114 80 69 77 119 97 89 81 41 21 15 358 340 294 20 65 206 214 203 193 207 201 172 178 163 150 171 201 239 165 152 169 184 146 63 95 110 105 102 102 98 85 77 80 77 60 52 56 70 88 101 100 108 115 116 107 90 82 78
11 10 9 9 9 7 7 8 7 6 7 4 359 352 331 201 143 98 58 51 35 24 13 7 1 354 0 298 254 100 68 36 64 141 117 74 359 346 347 319 328 312 308 50 43 355 327 201 94 249 254 121 169 160 172 191 192 204 166 148 168 160 114 95 125 120 108 114 110 97 85 79 79 79 62 47 53 73 81 90 88 94 92 85 80 76 76 76
11 9 7 8 8 7 8 9 5 1 2 4 2 351 335 153 154 125 74 54 31 22 10 7 6 3 346 274 252 92 63 5 48 137 170 189 282 305 294 269 302 303 335 68 38 28 41 35 47 295 307 126 166 151 188 218 172 179 158 125 153 115 105 127 127 119 112 115 113 100 86 72 55 66 71 47 54 82 83 82 76 77 77 74 71 66 65 66
10 8 7 8 9 8 9 12 4 357 359 2 4 6 55 148 154 134 112 58 28 13 8 2 5 9 304 275 287 81 71 356 342 217 208 214 238 261 272 276 291 301 325 61 70 39 25 29 35 245 280 145 161 137 166 315 359 165 146 124 133 112 98 103 122 124 123 114 108 105 92 69 54 59 65 48 66 98 100 97 97 100 90 81 79 75 67 64
9 8 7 8 10 10 12 14 4 355 356 358 4 28 129 146 151 143 139 42 19 4 4 355 3 10 286 282 59 67 53 352 331 231 237 229 239 267 288 286 282 292 313 326 64 42 9 10 306 262 51 162 164 134 108 20 120 153 151 150 143 133 100 77 104 115 141 129 105 127 108 67 52 57 56 49 80 106 102 99 102 106 98 89 86 85 77 71
9 8 8 8 11 13 15 14 4 355 355 357 9 46 131 140 151 149 142 4 7 356 354 351 3 351 278 54 70 50 28 36 49 44 314 250 258 277 304 331 300 279 285 304 22 24 359 358 313 344 37 279 96 99 120 91 138 148 168 172 150 157 114 62 67 95 156 134 329 239 158 70 61 61 57 50 87 108 100 96 99 101 100 96 91 88 83 78
9 8 9 9 12 17 18 13 3 355 356 5 24 68 119 140 146 136 316 338 345 348 350 353 2 326 272 76 76 37 46 74 69 41 5 284 270 197 128 5 340 261 255 273 335 359 350 3 281 99 42 349 63 127 153 119 143 150 162 182 170 175 127 72 51 53 172 147 256 252 180 88 81 75 67 60 99 110 101 99 99 99 99 98 94 91 89 83
9 9 9 9 13 19 20 14 4 358 3 20 46 83 110 133 125 104 321 337 335 346 350 351 356 306 204 94 82 25 45 101 82 26 4 328 291 124 93 346 334 221 226 244 260 6 337 227 221 159 98 66 118 163 141 120 134 154 174 179 182 189 137 110 74 22 74 140 223 251 137 106 93 92 82 67 109 111 100 100 97 97 98 97 96 94 93 89
8 10 9 9 13 20 21 14 6 3 10 36 63 91 107 112 99 16 333 324 322 354 349 347 343 295 343 82 93 67 53 35 23 1 356 349 321 353 357 314 177 179 179 186 207 200 219 220 234 126 144 158 150 120 115 128 123 162 225 172 178 207 158 139 107 43 355 160 200 244 150 125 106 106 93 75 118 112 101 102 98 99 99 96 96 92 89 85
7 9 10 8 11 18 19 13 8 7 14 42 66 100 111 113 82 14 355 325 318 9 330 343 324 282 58 68 234 73 27 357 355 345 347 357 345 331 328 297 194 185 173 165 176 188 197 189 184 185 186 170 151 143 144 174 166 188 255 185 201 221 194 178 138 90 286 201 183 162 127 118 113 117 107 98 124 115 104 103 99 98 97 96 95 89 84 77
6 8 9 8 8 12 15 12 9 8 14 45 65 95 114 110 28 5 356 333 270 222 241 339 309 249 95 58 349 14 352 338 348 339 339 360 359 322 329 321 219 198 181 167 164 186 184 179 192 184 179 177 171 179 185 185 185 187 196 199 198 208 207 182 125 99 203 190 154 130 121 117 118 121 112 107 118 113 104 102 99 97 96 95 92 87 82 75
5 5 7 7 5 6 10 9 10 8 11 45 54 49 166 254 303 347 360 348 256 240 305 30 347 332 70 36 7 354 337 335 335 340 354 352 344 248 294 309 213 212 203 172 142 185 184 175 195 190 173 174 178 202 215 184 182 188 191 199 189 182 181 122 98 75 153 159 148 142 133 127 126 123 118 114 114 110 105 105 103 102 101 99 94 88 83 78
4 4 4 5 2 3 9 10 12 11 10 30 8 297 237 227 201 136 62 38 34 20 20 27 10 18 56 26 3 347 335 37 3 24 12 347 299 235 248 198 198 203 219 124 114 170 208 172 158 112 88 89 115 199 232 162 172 187 187 190 181 164 119 107 107 83 110 141 132 140 135 128 125 122 123 124 122 117 114 114 111 111 107 101 97 92 86 82
1 2 2 2 0 358 10 18 16 19 27 40 13 286 44 12 315 84 52 72 64 20 22 38 356 6 28 5 4 348 289 153 67 46 20 348 276 243 179 193 202 144 94 102 115 159 215 123 86 58 61 78 85 120 132 141 161 176 180 171 164 156 122 107 106 101 177 179 131 137 133 124 124 123 127 133 129 117 113 118 116 117 114 105 100 95 91 90
358 360 0 359 357 354 8 24 22 34 45 51 53 75 73 31 3 8 311 115 84 28 22 63 239 81 59 347 8 337 281 165 60 51 18 340 312 329 149 209 208 110 129 157 141 147 139 95 81 73 92 110 101 116 125 135 153 160 168 163 149 143 124 109 106 116 187 187 145 146 136 123 126 125 129 135 127 110 101 108 111 117 120 111 101 96 99 99
356 357 358 358 356 352 11 36 31 43 48 51 59 65 64 18 360 303 272 240 93 58 28 41 22 49 60 83 13 329 293 20 11 44 14 337 353 8 297 192 132 136 167 184 161 141 121 88 74 98 144 142 123 132 135 130 142 147 158 161 146 152 151 138 131 124 160 176 153 153 141 128 134 134 133 126 121 118 110 109 108 108 104 97 95 94 97 97
355 355 356 358 356 355 39 57 38 49 51 52 56 49 32 6 19 209 266 273 106 81 41 29 11 20 28 32 343 323 42 45 352 30 11 345 15 332 312 58 146 161 147 197 112 96 98 78 62 139 177 170 140 146 155 140 133 130 139 144 145 162 170 139 136 134 120 132 157 164 161 153 160 165 159 144 141 139 134 142 136 120 109 105 104 93 86 84
353 352 355 358 360 13 100 83 41 46 49 51 47 32 20 35 167 234 268 251 153 115 128 102 350 23 16 328 322 326 136 78 23 26 11 356 350 302 71 19 284 146 121 145 124 98 87 73 122 176 177 181 157 157 183 173 155 139 90 120 150 160 152 139 151 161 145 150 176 188 209 180 171 186 175 160 171 167 159 172 161 142 138 132 123 108 96 90
351 350 354 358 5 21 143 101 38 15 40 56 28 13 21 56 203 235 274 248 177 97 149 224 348 29 7 340 2 311 228 111 49 27 21 3 338 303 180 194 298 95 113 143 111 99 93 108 209 202 177 183 169 159 171 239 211 150 120 151 157 157 155 154 167 188 185 157 174 202 252 201 173 195 187 174 184 179 175 185 178 164 160 151 138 127 118 110
350 349 351 359 9 19 52 63 22 348 25 54 10 4 34 119 184 195 262 248 185 27 323 341 8 10 4 353 341 284 237 95 105 73 35 5 333 272 242 161 152 114 103 222 135 103 92 141 176 207 200 198 180 141 100 273 254 123 130 168 164 166 172 171 186 207 185 107 158 199 254 262 215 199 182 183 193 189 188 193 188 181 172 161 151 141 133 125
350 346 348 358 8 30 57 59 2 22 33 18 0 1 48 169 192 209 260 258 203 347 323 34 13 345 345 324 311 322 57 46 219 85 37 354 349 280 242 69 78 125 142 265 189 112 23 109 127 238 224 188 61 49 20 295 270 103 140 178 167 176 185 188 207 209 158 175 191 196 219 259 257 181 166 185 203 206 204 200 195 189 176 167 161 152 145 135
350 343 344 352 358 47 66 85 46 40 33 354 354 4 162 195 225 234 261 272 291 102 57 359 291 328 328 259 178 78 91 5 356 49 22 352 34 360 41 57 19 124 170 272 167 124 82 33 20 331 266 94 61 43 350 305 64 112 150 169 150 173 180 198 228 202 178 232 237 196 197 241 264 184 173 193 212 218 214 207 200 191 181 173 165 161 158 152
348 340 339 346 356 61 74 106 86 11 1 348 353 31 191 217 236 235 237 271 339 79 122 313 320 330 311 227 155 117 120 79 56 59 69 95 74 60 65 44 290 181 163 194 101 120 116 88 4 7 52 73 72 62 12 9 115 133 153 151 146 160 159 201 239 216 217 235 234 192 195 234 263 228 198 200 219 228 217 207 200 190 182 173 167 171 168 161
345 339 334 337 350 89 299 116 79 351 349 348 4 172 214 225 238 248 235 165 322 14 229 3 13 350 317 266 136 125 137 95 82 216 137 141 145 118 136 201 219 211 183 147 123 141 153 160 147 76 65 118 129 100 80 115 138 154 170 162 160 161 170 204 197 209 244 237 193 171 202 233 254 252 226 201 213 228 222 206 197 191 184 172 172 178 169 157
342 335 331 329 319 155 317 29 35 342 343 350 182 205 236 233 227 248 110 169 249 353 20 24 9 2 349 299 82 103 140 97 78 346 43 134 92 74 9 332 292 226 201 173 167 168 170 151 124 125 132 237 216 146 120 148 170 189 192 182 195 184 183 216 203 208 245 227 139 158 210 236 251 256 260 233 205 208 212 208 198 192 185 174 173 176 163 155
340 334 328 313 188 143 327 334 347 318 346 270 213 225 258 260 242 290 54 209 315 20 14 334 338 340 304 249 147 94 300 100 94 115 126 257 245 95 57 20 338 290 249 174 190 184 175 156 166 177 151 199 251 219 164 178 191 208 204 202 225 212 201 230 223 226 245 201 143 153 196 245 254 247 264 275 228 196 193 203 198 189 183 175 171 172 164 162
341 334 321 253 156 118 62 338 341 338 324 218 222 230 255 271 298 90 270 59 61 37 301 325 314 276 254 260 81 55 241 120 110 211 183 215 225 144 112 84 360 308 270 198 211 214 217 177 169 183 128 167 246 279 319 244 196 211 229 237 248 249 244 247 248 259 263 189 151 156 191 255 266 124 79 341 257 193 180 182 178 174 173 171 170 172 171 171
344 336 20 145 133 95 61 43 47 347 270 222 229 240 254 286 355 159 282 52 65 245 159 294 273 227 195 160 82 15 313 97 147 213 220 228 230 65 75 81 40 334 273 222 191 226 251 198 111 86 41 308 242 325 333 285 219 188 232 248 251 274 270 266 324 324 326 297 221 188 221 272 278 142 141 164 200 185 171 166 167 169 166 165 172 179 181 184
356 5 135 118 95 60 57 81 40 348 266 234 241 253 272 352 15 54 38 29 360 327 257 206 228 233 203 177 167 169 233 328 195 209 217 209 132 86 80 61 37 345 311 279 174 202 246 180 120 132 135 82 349 6 295 287 269 169 213 233 122 9 300 264 195 85 285 272 256 213 250 264 216 183 166 165 187 183 175 175 178 176 170 173 182 186 189 194
0 62 151 108 74 26 48 35 345 311 249 244 260 296 13 49 31 52 80 73 8 325 271 221 190 255 233 193 181 171 179 204 202 218 201 170 158 140 141 103 42 350 346 329 287 229 273 202 148 176 168 114 56 297 179 264 288 251 224 170 96 51 281 259 254 217 236 260 252 229 258 265 256 221 168 176 191 186 186 188 184 181 179 184 191 193 195 197
349 297 174 123 69 332 2 338 313 266 241 247 237 84 49 131 91 84 117 121 299 249 257 242 156 306 261 233 184 149 188 206 180 205 221 182 163 155 165 138 91 29 2 323 295 54 301 255 165 180 185 135 159 231 194 167 248 283 299 118 209 251 225 217 245 256 259 267 265 251 256 264 265 244 162 186 198 194 194 193 190 189 187 191 195 196 198 197
331 240 179 124 187 301 342 326 288 244 240 249 211 135 149 135 114 121 155 163 281 260 258 281 11 257 242 271 303 136 200 238 194 208 231 197 155 151 198 180 125 113 44 325 320 39 295 282 172 169 174 160 194 225 223 184 170 225 236 204 231 279 280 249 252 268 272 274 279 274 265 263 269 299 117 205 203 201 200 196 198 196 192 198 200 198 202 198
303 253 155 105 175 287 333 307 247 233 241 272 331 128 151 137 125 123 142 237 291 305 308 10 222 236 212 252 288 228 223 257 252 245 232 182 169 161 172 221 172 131 99 330 308 346 281 285 252 166 157 206 222 216 250 247 191 200 211 206 203 213 265 273 257 261 275 278 281 281 279 282 53 63 337 289 231 213 206 200 203 200 195 201 201 201 205 196
268 268 133 91 321 278 290 263 219 250 243 180 40 133 143 129 136 131 133 240 279 3 345 327 270 267 246 220 238 193 245 248 238 250 234 192 212 194 128 20 236 147 155 190 197 292 286 274 276 225 189 222 211 73 12 343 328 279 247 233 226 213 225 250 245 230 243 270 281 284 288 305 87 98 317 307 302 254 218 206 204 202 201 202 199 201 205 197
246 255 97 28 328 233 249 248 151 297 248 156 80 114 122 130 157 142 143 192 227 180 235 263 272 281 263 257 280 153 252 257 234 247 249 217 234 180 80 41 337 238 244 231 99 76 329 281 272 264 247 251 60 59 23 357 331 292 271 265 257 239 239 250 260 255 230 252 275 276 281 302 103 108 61 332 312 305 250 220 207 202 202 201 196 199 203 199
258 287 70 20 5 200 242 248 159 207 195 95 82 105 114 162 167 165 174 190 207 188 194 201 222 259 241 274 287 230 240 266 249 254 265 230 172 74 69 58 252 236 243 242 112 138 207 262 262 262 256 245 101 115 141 352 291 258 242 241 250 256 261 267 283 299 279 259 262 260 265 256 109 111 115 177 250 251 242 231 217 206 197 195 200 205 203 197
330 293 84 15 19 207 249 259 198 199 131 132 163 135 123 170 151 185 193 184 197 205 207 192 188 246 212 249 262 251 255 257 244 247 270 247 128 82 66 80 237 234 237 335 47 159 214 250 264 272 252 212 209 205 197 197 222 243 244 228 236 257 263 266 275 278 267 264 263 262 271 275 111 127 180 191 213 222 215 219 221 211 196 195 205 206 199 191
308 241 195 18 34 234 262 312 303 225 151 166 182 158 165 163 81 336 274 151 164 260 261 144 135 221 207 215 236 219 204 258 258 201 241 236 139 106 82 104 244 259 39 24 20 186 252 278 251 269 263 236 241 249 238 236 223 234 243 229 232 241 237 242 260 252 250 261 256 251 270 286 134 168 211 201 215 231 214 201 207 211 206 203 204 199 190 187
302 224 184 165 149 219 248 28 306 259 174 183 188 174 200 183 125 63 288 174 154 173 296 129 164 212 201 212 230 216 198 232 266 261 248 232 177 123 95 119 205 128 93 71 53 215 265 274 247 259 264 269 303 338 355 337 299 257 246 235 231 234 238 246 256 255 264 276 257 246 262 274 263 249 244 218 221 235 223 206 204 207 208 207 205 197 188 188
296 300 9 155 173 199 187 170 233 248 179 199 199 170 205 199 153 153 224 233 157 170 212 199 211 223 203 207 232 227 209 215 234 246 256 248 214 129 117 154 149 137 137 133 192 236 264 264 246 253 258 264 289 306 311 305 286 276 272 256 241 235 238 243 248 260 280 279 263 264 268 266 275 286 275 256 248 244 235 224 216 211 209 208 204 195 189 192
306 340 21 348 283 209 166 153 215 202 166 202 222 176 199 203 184 182 186 160 170 197 218 210 215 230 227 217 229 226 221 228 231 230 233 239 227 180 169 182 168 166 175 174 173 245 276 274 245 255 265 262 257 256 253 257 264 268 268 263 257 249 244 245 250 257 265 262 264 287 290 270 274 284 280 279 271 257 252 242 230 222 215 209 203 198 197 199
331 332 59 321 297 18 49 38 271 208 186 195 217 198 211 218 204 196 167 169 190 205 223 235 216 210 213 218 233 241 232 239 245 237 232 236 237 224 215 206 176 177 197 199 169 216 276 276 178 262 273 265 248 244 246 253 259 260 258 257 256 254 251 251 253 256 259 261 265 275 279 276 276 277 278 285 280 265 265 254 234 224 220 215 210 207 208 205
337 331 16 280 257 95 75 153 206 213 190 195 223 199 210 233 219 197 188 206 211 184 199 238 229 179 204 217 230 247 251 261 272 267 244 234 232 232 238 244 209 186 204 214 182 181 254 268 113 264 275 264 243 236 240 250 261 263 261 258 253 252 252 250 251 254 256 258 259 263 270 273 271 266 271 279 259 237 241 236 229 227 224 220 215 212 212 210
330 318 324 287 258 138 187 202 212 240 214 200 219 196 204 234 231 219 208 217 237 216 197 226 217 163 197 216 234 252 259 262 267 272 262 248 250 251 248 260 244 213 213 221 204 194 226 246 216 252 273 268 227 233 262 267 269 265 260 254 249 247 247 247 246 245 246 251 256 255 257 264 267 259 253 240 212 218 228 226 225 224 219 217 216 214 211 208
325 293 285 286 281 162 218 208 203 240 238 209 231 211 219 239 230 232 226 212 231 238 222 225 222 206 212 216 238 270 288 280 275 281 280 264 268 277 276 281 269 252 238 227 219 221 235 252 264 263 273 274 236 260 291 287 276 269 258 245 246 249 250 250 246 241 242 246 252 252 251 262 280 284 260 243 218 219 228 225 222 220 216 214 214 214 211 204